Time,TemperatureF,DewpointF,PressureIn,WindDirection,WindDirectionDegrees,WindSpeedMPH,WindSpeedGustMPH,Humidity,HourlyPrecipIn,Conditions,Clouds,dailyrainin,SoftwareType,DateUTC
2013-06-22 00:07:00,67.3,28.0,29.75,East,90,0.0,-999.0,23,-99.99,,,0.00,weatherlink.com 1.10,2013-06-22 07:07:00,
2013-06-22 00:22:00,66.9,28.0,29.75,East,90,0.0,-999.0,23,-99.99,,,0.00,weatherlink.com 1.10,2013-06-22 07:22:00,
2013-06-22 00:37:00,66.8,28.0,29.75,ENE,59,3.0,-999.0,23,-99.99,,,0.00,weatherlink.com 1.10,2013-06-22 07:37:00,
2013-06-22 00:53:00,67.3,28.0,29.75,SE,127,0.0,-999.0,23,-99.99,,,0.00,weatherlink.com 1.10,2013-06-22 07:53:00,
2013-06-22 01:08:00,66.4,28.0,29.75,SE,130,0.0,-999.0,24,-99.99,,,0.00,weatherlink.com 1.10,2013-06-22 08:08:00,
2013-06-22 01:23:00,65.5,29.0,29.75,SE,129,0.0,-999.0,25,-99.99,,,0.00,weatherlink.com 1.10,2013-06-22 08:23:00,
2013-06-22 01:38:00,64.7,28.0,29.75,NE,55,5.0,-999.0,25,-99.99,,,0.00,weatherlink.com 1.10,2013-06-22 08:38:00,
2013-06-22 01:53:00,65.6,28.0,29.75,ENE,66,1.0,-999.0,24,-99.99,,,0.00,weatherlink.com 1.10,2013-06-22 08:53:00,
2013-06-22 02:08:00,65.6,29.0,29.74,ENE,58,6.0,-999.0,25,-99.99,,,0.00,weatherlink.com 1.10,2013-06-22 09:08:00,
2013-06-22 02:23:00,64.7,28.0,29.75,NE,50,6.0,-999.0,25,-99.99,,,0.00,weatherlink.com 1.10,2013-06-22 09:23:00,
2013-06-22 02:38:00,64.2,28.0,29.75,NE,50,0.0,-999.0,26,-99.99,,,0.00,weatherlink.com 1.10,2013-06-22 09:38:00,
2013-06-22 02:53:00,65.6,30.0,29.75,NE,53,0.0,-999.0,26,-99.99,,,0.00,weatherlink.com 1.10,2013-06-22 09:53:00,
2013-06-22 03:08:00,64.0,27.0,29.75,South,180,3.0,-999.0,25,-99.99,,,0.00,weatherlink.com 1.10,2013-06-22 10:08:00,
2013-06-22 03:23:00,62.4,28.0,29.76,South,173,5.0,-999.0,27,-99.99,,,0.00,weatherlink.com 1.10,2013-06-22 10:23:00,
2013-06-22 03:39:00,67.4,29.0,29.75,NNE,27,0.0,-999.0,24,-99.99,,,0.00,weatherlink.com 1.10,2013-06-22 10:39:00,
2013-06-22 03:54:00,67.3,32.0,29.74,SE,126,0.0,-999.0,27,-99.99,,,0.00,weatherlink.com 1.10,2013-06-22 10:54:00,
2013-06-22 04:09:00,66.3,32.0,29.75,SE,126,0.0,-999.0,28,-99.99,,,0.00,weatherlink.com 1.10,2013-06-22 11:09:00,
2013-06-22 04:24:00,64.7,30.0,29.75,ESE,123,0.0,-999.0,27,-99.99,,,0.00,weatherlink.com 1.10,2013-06-22 11:24:00,
2013-06-22 04:39:00,63.2,31.0,29.76,ESE,123,0.0,-999.0,30,-99.99,,,0.00,weatherlink.com 1.10,2013-06-22 11:39:00,
2013-06-22 04:54:00,61.2,27.0,29.77,South,182,0.0,-999.0,27,-99.99,,,0.00,weatherlink.com 1.10,2013-06-22 11:54:00,
2013-06-22 05:09:00,60.1,29.0,29.78,WSW,242,1.0,-999.0,31,-99.99,,,0.00,weatherlink.com 1.10,2013-06-22 12:09:00,
2013-06-22 05:24:00,60.7,30.0,29.78,SSW,204,0.0,-999.0,32,-99.99,,,0.00,weatherlink.com 1.10,2013-06-22 12:24:00,
2013-06-22 05:39:00,61.6,34.0,29.79,South,188,5.0,-999.0,35,-99.99,,,0.00,weatherlink.com 1.10,2013-06-22 12:39:00,
2013-06-22 05:54:00,62.7,34.0,29.79,SSW,203,8.0,-999.0,34,-99.99,,,0.00,weatherlink.com 1.10,2013-06-22 12:54:00,
2013-06-22 06:09:00,63.1,33.0,29.79,SSW,207,7.0,-999.0,32,-99.99,,,0.00,weatherlink.com 1.10,2013-06-22 13:09:00,
2013-06-22 06:25:00,63.1,33.0,29.80,SW,215,6.0,-999.0,32,-99.99,,,0.00,weatherlink.com 1.10,2013-06-22 13:25:00,
2013-06-22 06:40:00,63.9,34.0,29.81,SW,234,6.0,-999.0,33,-99.99,,,0.00,weatherlink.com 1.10,2013-06-22 13:40:00,
2013-06-22 06:55:00,65.3,35.0,29.81,SW,232,5.0,-999.0,32,-99.99,,,0.00,weatherlink.com 1.10,2013-06-22 13:55:00,
2013-06-22 07:10:00,66.9,34.0,29.80,WSW,249,7.0,-999.0,30,-99.99,,,0.00,weatherlink.com 1.10,2013-06-22 14:10:00,
2013-06-22 07:25:00,68.4,34.0,29.81,SW,217,4.0,-999.0,28,-99.99,,,0.00,weatherlink.com 1.10,2013-06-22 14:25:00,
2013-06-22 07:40:00,70.4,32.0,29.82,SSW,209,9.0,-999.0,24,-99.99,,,0.00,weatherlink.com 1.10,2013-06-22 14:40:00,
2013-06-22 07:55:00,73.0,30.0,29.82,SW,232,5.0,-999.0,20,-99.99,,,0.00,weatherlink.com 1.10,2013-06-22 14:55:00,
2013-06-22 08:10:00,74.7,30.0,29.81,SW,227,6.0,-999.0,19,-99.99,,,0.00,weatherlink.com 1.10,2013-06-22 15:10:00,
2013-06-22 08:25:00,77.0,29.0,29.81,SW,223,3.0,-999.0,17,-99.99,,,0.00,weatherlink.com 1.10,2013-06-22 15:25:00,
2013-06-22 08:40:00,78.6,27.0,29.80,SW,215,1.0,-999.0,15,-99.99,,,0.00,weatherlink.com 1.10,2013-06-22 15:40:00,
2013-06-22 08:56:00,80.1,27.0,29.81,SW,220,6.0,-999.0,14,-99.99,,,0.00,weatherlink.com 1.10,2013-06-22 15:56:00,
2013-06-22 09:11:00,80.9,27.0,29.80,SSW,198,0.0,-999.0,14,-99.99,,,0.00,weatherlink.com 1.10,2013-06-22 16:11:00,
2013-06-22 09:26:00,81.8,26.0,29.81,SW,226,3.0,-999.0,13,-99.99,,,0.00,weatherlink.com 1.10,2013-06-22 16:26:00,
2013-06-22 09:41:00,83.4,26.0,29.80,SSW,201,4.0,-999.0,12,-99.99,,,0.00,weatherlink.com 1.10,2013-06-22 16:41:00,
2013-06-22 09:56:00,84.5,27.0,29.80,WNW,296,11.0,-999.0,12,-99.99,,,0.00,weatherlink.com 1.10,2013-06-22 16:56:00,
2013-06-22 10:11:00,85.3,27.0,29.79,NW,321,9.0,-999.0,12,-99.99,,,0.00,weatherlink.com 1.10,2013-06-22 17:11:00,
2013-06-22 10:26:00,87.4,27.0,29.79,West,262,8.0,-999.0,11,-99.99,,,0.00,weatherlink.com 1.10,2013-06-22 17:26:00,
2013-06-22 10:41:00,87.0,26.0,29.79,ENE,59,0.0,-999.0,11,-99.99,,,0.00,weatherlink.com 1.10,2013-06-22 17:41:00,
2013-06-22 10:56:00,88.2,25.0,29.80,West,259,2.0,-999.0,10,-99.99,,,0.00,weatherlink.com 1.10,2013-06-22 17:56:00,
2013-06-22 11:11:00,89.7,26.0,29.79,WNW,294,6.0,-999.0,10,-99.99,,,0.00,weatherlink.com 1.10,2013-06-22 18:11:00,
2013-06-22 11:26:00,90.3,27.0,29.79,NW,306,1.0,-999.0,10,-99.99,,,0.00,weatherlink.com 1.10,2013-06-22 18:26:00,
2013-06-22 11:42:00,91.4,28.0,29.79,West,273,2.0,-999.0,10,-99.99,,,0.00,weatherlink.com 1.10,2013-06-22 18:42:00,
2013-06-22 11:57:00,92.5,26.0,29.78,West,259,3.0,-999.0,9,-99.99,,,0.00,weatherlink.com 1.10,2013-06-22 18:57:00,
2013-06-22 12:12:00,92.7,29.0,29.77,NNW,341,4.0,-999.0,10,-99.99,,,0.00,weatherlink.com 1.10,2013-06-22 19:12:00,
2013-06-22 12:27:00,92.9,26.0,29.77,WNW,285,1.0,-999.0,9,-99.99,,,0.00,weatherlink.com 1.10,2013-06-22 19:27:00,
2013-06-22 12:42:00,92.1,25.0,29.77,SE,128,2.0,-999.0,9,-99.99,,,0.00,weatherlink.com 1.10,2013-06-22 19:42:00,
2013-06-22 12:57:00,92.7,26.0,29.77,NW,321,5.0,-999.0,9,-99.99,,,0.00,weatherlink.com 1.10,2013-06-22 19:57:00,
2013-06-22 13:12:00,93.8,27.0,29.76,NW,306,6.0,-999.0,9,-99.99,,,0.00,weatherlink.com 1.10,2013-06-22 20:12:00,
2013-06-22 13:27:00,93.8,27.0,29.75,East,83,3.0,-999.0,9,-99.99,,,0.00,weatherlink.com 1.10,2013-06-22 20:27:00,
2013-06-22 13:42:00,91.8,25.0,29.75,East,95,0.0,-999.0,9,-99.99,,,0.00,weatherlink.com 1.10,2013-06-22 20:42:00,
2013-06-22 13:57:00,93.4,24.0,29.74,SW,216,0.0,-999.0,8,-99.99,,,0.00,weatherlink.com 1.10,2013-06-22 20:57:00,
2013-06-22 14:12:00,93.4,24.0,29.74,SSE,149,3.0,-999.0,8,-99.99,,,0.00,weatherlink.com 1.10,2013-06-22 21:12:00,
2013-06-22 14:27:00,94.0,24.0,29.73,West,261,7.0,-999.0,8,-99.99,,,0.00,weatherlink.com 1.10,2013-06-22 21:27:00,
2013-06-22 14:43:00,94.9,25.0,29.73,SSE,156,6.0,-999.0,8,-99.99,,,0.00,weatherlink.com 1.10,2013-06-22 21:43:00,
2013-06-22 14:58:00,95.4,25.0,29.72,SW,217,5.0,-999.0,8,-99.99,,,0.00,weatherlink.com 1.10,2013-06-22 21:58:00,
2013-06-22 15:13:00,96.1,26.0,29.72,South,186,0.0,-999.0,8,-99.99,,,0.00,weatherlink.com 1.10,2013-06-22 22:13:00,
2013-06-22 15:28:00,96.8,26.0,29.71,WSW,245,11.0,-999.0,8,-99.99,,,0.00,weatherlink.com 1.10,2013-06-22 22:28:00,
2013-06-22 15:43:00,95.6,28.0,29.70,SW,231,7.0,-999.0,9,-99.99,,,0.00,weatherlink.com 1.10,2013-06-22 22:43:00,
2013-06-22 15:58:00,94.9,28.0,29.71,WSW,254,13.0,-999.0,9,-99.99,,,0.00,weatherlink.com 1.10,2013-06-22 22:58:00,
2013-06-22 16:13:00,93.6,29.0,29.70,SSW,192,11.0,-999.0,10,-99.99,,,0.00,weatherlink.com 1.10,2013-06-22 23:13:00,
2013-06-22 16:28:00,93.8,29.0,29.72,WSW,255,14.0,-999.0,10,-99.99,,,0.00,weatherlink.com 1.10,2013-06-22 23:28:00,
2013-06-22 16:44:00,92.3,28.0,29.72,WSW,256,12.0,-999.0,10,-99.99,,,0.00,weatherlink.com 1.10,2013-06-22 23:44:00,
2013-06-22 16:59:00,91.8,30.0,29.72,SW,232,7.0,-999.0,11,-99.99,,,0.00,weatherlink.com 1.10,2013-06-22 23:59:00,
2013-06-22 17:14:00,91.2,30.0,29.72,SW,236,13.0,-999.0,11,-99.99,,,0.00,weatherlink.com 1.10,2013-06-23 00:14:00,
2013-06-22 17:29:00,90.3,29.0,29.72,West,268,13.0,-999.0,11,-99.99,,,0.00,weatherlink.com 1.10,2013-06-23 00:29:00,
2013-06-22 17:44:00,89.9,29.0,29.72,West,263,13.0,-999.0,11,-99.99,,,0.00,weatherlink.com 1.10,2013-06-23 00:44:00,
2013-06-22 17:59:00,89.3,28.0,29.71,SW,230,12.0,-999.0,11,-99.99,,,0.00,weatherlink.com 1.10,2013-06-23 00:59:00,
2013-06-22 18:14:00,88.2,27.0,29.72,WSW,249,13.0,-999.0,11,-99.99,,,0.00,weatherlink.com 1.10,2013-06-23 01:14:00,
2013-06-22 18:29:00,87.8,27.0,29.72,WSW,242,13.0,-999.0,11,-99.99,,,0.00,weatherlink.com 1.10,2013-06-23 01:29:00,
2013-06-22 18:44:00,86.7,26.0,29.72,West,261,14.0,-999.0,11,-99.99,,,0.00,weatherlink.com 1.10,2013-06-23 01:44:00,
2013-06-22 18:59:00,86.1,26.0,29.73,West,259,9.0,-999.0,11,-99.99,,,0.00,weatherlink.com 1.10,2013-06-23 01:59:00,
2013-06-22 19:14:00,85.1,25.0,29.73,West,259,12.0,-999.0,11,-99.99,,,0.00,weatherlink.com 1.10,2013-06-23 02:14:00,
2013-06-22 19:29:00,84.0,26.0,29.72,WSW,250,5.0,-999.0,12,-99.99,,,0.00,weatherlink.com 1.10,2013-06-23 02:29:00,
2013-06-22 19:44:00,82.6,27.0,29.72,SW,230,7.0,-999.0,13,-99.99,,,0.00,weatherlink.com 1.10,2013-06-23 02:44:00,
2013-06-22 20:00:00,80.9,29.0,29.73,SW,223,7.0,-999.0,15,-99.99,,,0.00,weatherlink.com 1.10,2013-06-23 03:00:00,
2013-06-22 20:15:00,79.4,31.0,29.73,WSW,258,9.0,-999.0,17,-99.99,,,0.00,weatherlink.com 1.10,2013-06-23 03:15:00,
2013-06-22 20:30:00,78.1,30.0,29.72,SSW,209,2.0,-999.0,17,-99.99,,,0.00,weatherlink.com 1.10,2013-06-23 03:30:00,
2013-06-22 20:45:00,77.6,29.0,29.72,SW,220,3.0,-999.0,17,-99.99,,,0.00,weatherlink.com 1.10,2013-06-23 03:45:00,
2013-06-22 21:00:00,76.3,30.0,29.73,SW,227,4.0,-999.0,18,-99.99,,,0.00,weatherlink.com 1.10,2013-06-23 04:00:00,
2013-06-22 21:15:00,75.6,29.0,29.73,South,185,6.0,-999.0,18,-99.99,,,0.00,weatherlink.com 1.10,2013-06-23 04:15:00,
2013-06-22 21:30:00,75.4,29.0,29.72,South,182,6.0,-999.0,18,-99.99,,,0.00,weatherlink.com 1.10,2013-06-23 04:30:00,
2013-06-22 21:45:00,74.9,29.0,29.72,SSW,213,0.0,-999.0,18,-99.99,,,0.00,weatherlink.com 1.10,2013-06-23 04:45:00,
2013-06-22 22:00:00,74.7,28.0,29.74,SW,232,5.0,-999.0,18,-99.99,,,0.00,weatherlink.com 1.10,2013-06-23 05:00:00,
2013-06-22 22:15:00,74.2,25.0,29.73,SW,217,0.0,-999.0,16,-99.99,,,0.00,weatherlink.com 1.10,2013-06-23 05:15:00,
2013-06-22 22:30:00,73.7,26.0,29.73,SSW,213,0.0,-999.0,17,-99.99,,,0.00,weatherlink.com 1.10,2013-06-23 05:30:00,
2013-06-22 22:45:00,73.0,27.0,29.73,SSW,213,0.0,-999.0,18,-99.99,,,0.00,weatherlink.com 1.10,2013-06-23 05:45:00,
2013-06-22 23:00:00,72.7,27.0,29.72,South,178,0.0,-999.0,18,-99.99,,,0.00,weatherlink.com 1.10,2013-06-23 06:00:00,
2013-06-22 23:15:00,72.0,26.0,29.72,South,178,0.0,-999.0,18,-99.99,,,0.00,weatherlink.com 1.10,2013-06-23 06:15:00,
2013-06-22 23:31:00,71.5,27.0,29.71,South,178,0.0,-999.0,19,-99.99,,,0.00,weatherlink.com 1.10,2013-06-23 06:31:00,
2013-06-22 23:46:00,71.6,27.0,29.71,South,178,0.0,-999.0,19,-99.99,,,0.00,weatherlink.com 1.10,2013-06-23 06:46:00,